SNUGLITE 2
1 52899U 22065F   26159.35303490  .00001025  00000-0  20337-3 0  9994
2 52899  98.2193 304.2000 0008493  57.9459 302.2568 14.64331761209709
UmKA 1 (RS40S)
1 57172U 23091G   26159.80334791  .00005559  00000-0  25533-3 0  9990
2 57172  97.5054 218.5333 0013846 143.9336 216.2836 15.20720894162735
CubeBel-2 (EU11S)
1 57175U 23091K   26159.80725616  .00011793  00000-0  42118-3 0  9998
2 57175  97.5054 222.9505 0011068 140.2482 219.9570 15.28948569163021
RS-38S
1 57189U 23091Z   26159.80833209  .00016140  00000-0  46541-3 0  9996
2 57189  97.5093 229.1273 0008684 102.6705 257.5509 15.35758121163403
SONATE-2
1 59112U 24043Q   26159.40564279  .00034305  00000-0  45675-3 0  9996
2 59112  97.5527 309.2685 0006671 225.6872 134.3836 15.58061351126529
GRBBeta
1 60237U 24128C   26159.72475897  .00004223  00000-0  29272-3 0  9993
2 60237  61.9897 245.9555 0041799 132.8784 227.5832 15.06584103104993
Curium One
1 60242U 24128H   26159.77378877  .00007941  00000-0  45821-3 0  9992
2 60242  61.9782 235.5712 0041127 128.7212 231.7572 15.12405383105186
ROBUSTA-3A
1 60243U 24128J   26159.80006560  .00007653  00000-0  45182-3 0  9994
2 60243  61.9858 237.9014 0042331 126.3779 234.1234 15.11578086105151
CatSat
1 60246U 24125J   26159.85527419  .00057679  00000-0  76822-3 0  9998
2 60246  97.2096  12.2535 0021910 208.8241 151.1806 15.57674105106098
HYPERVIEW-1G (RS66S)
1 61772U 24199AP  26159.54748109 -.00003022  00000-0 -20844-4 0  9990
2 61772  97.2891  38.8443 0001993 299.0246  61.0818 15.73537611133319
AO-123
1 61781U 24199AY  26159.82418446  .00007474  00000-0  21800-3 0  9994
2 61781  97.3015  28.5706 0013171 346.4374  13.6514 15.35555817132643
JINJUSat 1B
1 63210U 25052A   26159.46663370  .00014473  00000-0  45270-3 0  9994
2 63210  97.4013  56.2109 0005346 109.3951 250.7869 15.33228548 68762
NUSHSAT 1
1 63211U 25052B   26159.45899227  .00018527  00000-0  53634-3 0  9993
2 63211  97.3987  56.7396 0005134 110.7208 249.4586 15.35627248 68809
TEVEL2-4
1 63213U 25052D   26158.66121393  .00020438  00000-0  61719-3 0  9996
2 63213  97.3922  55.0407 0004354 120.1889 239.9786 15.34277122 68658
TEVEL2-5
1 63214U 25052E   26159.46337036  .00016406  00000-0  49840-3 0  9990
2 63214  97.3910  55.7922 0004394 121.6229 238.5443 15.34134140 68773
TEVEL2-6
1 63215U 25052F   26159.21458765  .00015702  00000-0  47787-3 0  9993
2 63215  97.3912  55.5275 0004415 121.5489 238.6185 15.34088018 68738
TEVEL2-1
1 63217U 25052H   26159.24053252  .00015233  00000-0  47132-3 0  9993
2 63217  97.3889  55.1881 0004189 130.0273 230.1338 15.33568729 68723
TEVEL2-3
1 63218U 25052J   26159.23549191  .00015170  00000-0  46859-3 0  9990
2 63218  97.3889  55.2041 0004279 131.4338 228.7272 15.33621807 68727
TEVEL2-2
1 63219U 25052K   26159.69763688  .00018164  00000-0  56087-3 0  9990
2 63219  97.3887  55.6477 0004230 131.0442 229.1167 15.33595395 68799
TEVEL2-9
1 63237U 25052AD  26159.20683054  .00013734  00000-0  45172-3 0  9996
2 63237  97.3948  54.5513 0006909 156.1696 203.9867 15.31621079 68659
TEVEL2-7
1 63238U 25052AE  26159.24603484  .00013747  00000-0  45614-3 0  9995
2 63238  97.3948  54.5102 0007005 156.9865 203.1691 15.31335451 68651
TEVEL2-8
1 63239U 25052AF  26159.45022968  .00013909  00000-0  46163-3 0  9991
2 63239  97.3950  54.6910 0007062 156.6692 203.4871 15.31323830 68685
SPIRONE
1 66657U 25274H   26159.74636133  .00002860  00000-0  27655-3 0  9990
2 66657  97.7478  89.1581 0013311  48.1351 312.1002 14.93510898 28969
K-HERO
1 66660U 25274L   26159.75331997  .00002880  00000-0  27546-3 0  9996
2 66660  97.7486  89.3199 0015330  51.5776 308.6817 14.93931551 28979
SNUGLITE-III DURI
1 66661U 25274M   26159.74132470  .00002110  00000-0  20304-3 0  9992
2 66661  97.7486  89.3286 0015851  51.9361 308.3286 14.93972935 28977
SAKHACUBE-CHOLBON
1 67290U 25313AU  26159.16978697  .00008397  00000-0  34160-3 0  9998
2 67290  97.3924 234.3177 0009771  36.1127 324.0768 15.24728408 24604
RS95S (QMR-KWT-2)
1 67291U 25313AV  26159.16613882  .00011819  00000-0  46084-3 0  9992
2 67291  97.3927 234.4719 0009138  35.3898 324.7945 15.26059007 24613
Ten-Koh2
1 68261U 25241B   26159.75259884  .00006573  00000-0  28271-3 0  9992
2 68261  51.6681 359.7671 0006394 117.9263 242.2363 15.23804599 13621
JACK-002
1 68417U 26067B   26159.79724242  .00006773  00000-0  32412-3 0  9995
2 68417  97.4561 118.4924 0001212  22.2713 337.8574 15.19291839 10671
DISCO 2
1 68431U 26067R   26159.81658019  .00008769  00000-0  42272-3 0  9994
2 68431  97.4596 118.5003 0003585  58.0042 302.1540 15.18948382 10670
HADES-SA (SpinnyONE)
1 68446U 26067AG  26159.39410314  .00014065  00000-0  67850-3 0  9992
2 68446  97.4403 117.8238 0009841 104.1539 256.0789 15.18758632 10590
PARUS-6U1
1 68456U 26067AS  26159.81394133  .00005549  00000-0  28053-3 0  9999
2 68456  97.4545 118.3071 0007649  93.4236 266.7873 15.17429664 10666
SAL-E
1 68458U 26067AU  26159.81061220  .00007411  00000-0  37118-3 0  9991
2 68458  97.4469 118.2453 0008078 100.6124 259.6020 15.17640684 10662
FSI-SAT 2
1 68792U 26088A   26159.38712528  .00003505  00000-0  23912-3 0  9998
2 68792  97.5053 308.8690 0015612 134.2090 226.0423 15.06761099  6965
OrigamiSat 2
1 68795U 26088D   26159.40704978  .00003807  00000-0  24717-3 0  9993
2 68795  97.5070 308.9982 0016493 108.9395 251.3623 15.08528104  6970
ARICA 2
1 68796U 26088E   26159.40488692  .00004082  00000-0  26588-3 0  9990
2 68796  97.5058 308.9921 0017318 107.6086 252.7035 15.08357975  6978
WASEDA-SAT-ZERO-II
1 68797U 26088F   26159.40177110  .00005423  00000-0  35017-3 0  9998
2 68797  97.5053 308.9952 0017125 107.4963 252.8139 15.08543090  6977
MANGARO-II-Piscus
1 68798U 26088G   26159.65844117  .00003916  00000-0  25242-3 0  9998
2 68798  97.5060 309.2719 0020603 109.5339 250.8117 15.08722839  7016
IO-86
1 40931U          25360.30710720  .00000000  00000-0  12800-3 0    00
2 40931   6.0006 332.5373 0012733 338.8432   8.1437 14.79075515    01
LILIUM-4                
1 71922C 26067AC  26089.50133053 -.00014632  00000+0 -74472-3 0    04
2 71922  97.4497  49.1617 0004341   5.9603 355.7042 15.16896692    16
